Regional Weather Roundup
Issued by NWS

Home | Current Version | Previous Version | Text Only | Print | Product List | Glossary On
Versions: 1 2 3 4 5 6 7 8 9 10 11 12 13 14 15 16 17 18 19 20 21 22 23 24 25 26 27
000
ASUS42 KKEY 241010
RWRKEY

FLORIDA REGIONAL WEATHER ROUNDUP FOR THE FLORIDA KEYS
NATIONAL WEATHER SERVICE KEY WEST FLORIDA
600 AM EDT THU AUG 24 2017

...SOUTH FLORIDA AND THE KEYS...

CITY           SKY/WX    TMP DP  RH WIND       PRES   REMARKS
FORT MYERS     PTCLDY    77  77 100 E3        29.85R
SW REGIONAL AP PTCLDY    77  76  96 E3        29.85R
NAPLES         PTCLDY    77  76  96 CALM      29.85R
MIAMI          CLOUDY    81  76  84 S3        29.84R
WEST KENDALL   PTCLDY    78  76  93 CALM      29.84R
HOMESTEAD      CLOUDY    78  78  99 CALM      29.83S
MARATHON       CLOUDY   N/A N/A N/A S6        29.83R
BOCA CHICA NAS CLOUDY    83  80  91 SW9       29.83R HX  95
KEY WEST INTL  CLOUDY    84  77  79 SW12      29.83R HX  94

...INTERNATIONAL WEATHER...

CITY           SKY/WX    TMP DP  RH WIND       PRES   REMARKS
NASSAU BAHAMAS NOT AVBL
CANCUN MEXICO  MOCLDY    81  77  89 S6        29.81R
COZUMEL MEXICO PTCLDY    77  75  94 CALM      29.80R

ADJACENT COASTAL WATERS...

STATION/POSITION TIME  SKY/WX   TEMP    WIND        PRES    WAVE
                                AIR SEA DIR/SP/G            HT/PER
                 (UTC)          (F)     (DEG/KT/KT) (MB)    (FT/S)
PULASKI SHOAL LI 1000            85     230/ 10/ 12 1010.2R
SAND KEY         0950            83                 1010.4F
LONG KEY         NOT AVBL
MOLASSES REEF    0900            81 86  160/  7     1010.6F
FOWEY ROCKS      1000            83 85  140/ 18/ 19 1011.1R
Buoy 42097       0930               87                N/A     2/ 5

$$




USA.gov is the U.S. government's official web portal to all federal, state and local government web resources and services.